Vancouver, British Columbia

1:02 PM PDT on April 21, 2018 (GMT -0700)
Vancouver International Airport

Weather History for CYVR - September, 2013

Change the Weather History Date:

Monday, September 30, 2013

  Actual Average Record
Temperature  
Mean Temperature 54 °F -  
Max Temperature 57 °F 56 °F 69 °F (2008)
Min Temperature 50 °F 44 °F 41 °F (2016)
Degree Days  
Heating Degree Days 12    
Growing Degree Days 4 (Base 50)    
Moisture  
Dew Point 46 °F    
Average Humidity 80    
Maximum Humidity 88    
Minimum Humidity 72    
Precipitation  
Precipitation 0.08 in 0.15 in - ()
Sea Level Pressure  
Sea Level Pressure 29.60 in    
Wind  
Wind Speed 15 mph ()    
Max Wind Speed 23 mph    
Max Gust Speed 31 mph    
Visibility 14.2 miles    
Events Rain    
Averages and records for this station are not official NWS values.
T = Trace of Precipitation, MM = Missing Value Source: Averaged Metar Reports

Daily Weather History Graph

Daily Weather History Graph

Search for Another Location

Airport or City:

Astronomy

Sep. 30, 2013 Rise Set
Actual Time 7:11 AM PDT 6:52 PM PDT
Civil Twilight 6:39 AM PDT 7:24 PM PDT
Nautical Twilight 6:02 AM PDT 8:01 PM PDT
Astronomical Twilight 5:25 AM PDT 8:38 PM PDT
Moon 2:34 AM PDT (9/30) 4:43 PM PDT (9/30)
Length of Visible Light 12h 44m
Length of Day
11h 41m
Waning Crescent, 18% of the Moon is Illuminated
Sep 30
Waning Crescent
Oct 4
New
Oct 11
First Quarter
Oct 18
Full
Oct 26
Last Quarter

Hourly Weather History & Observations

Time (PDT) Temp. Dew Point Humidity Pressure Visibility Wind Dir Wind Speed Gust Speed Precip Events Conditions
12:00 AM 51.8 °F 44.6 °F 76% 29.26 in 12.0 mi South 12.7 mph - N/A   Mostly Cloudy
1:00 AM 51.8 °F 44.6 °F 76% 29.31 in 12.0 mi SSE 13.8 mph - N/A   Overcast
1:18 AM 51.8 °F 44.6 °F 76% 29.32 in 12.0 mi South 17.3 mph 25.3 mph N/A Rain Light Rain Showers
2:00 AM 51.8 °F 44.6 °F 76% 29.34 in 12.0 mi South 19.6 mph - N/A Rain Light Rain Showers
3:00 AM 51.8 °F 44.6 °F 76% 29.35 in 10.0 mi South 17.3 mph 23.0 mph N/A Rain Light Rain Showers
3:56 AM 50.0 °F 44.6 °F 82% 29.37 in 12.0 mi South 13.8 mph 24.2 mph N/A   Overcast
4:00 AM 50.0 °F 44.6 °F 82% 29.37 in 12.0 mi South 13.8 mph 21.9 mph N/A   Overcast
5:00 AM 51 °F 45 °F 73% 29.40 in 12 mi South 17.3 mph - -   Partly Cloudy
5:00 AM 51.8 °F 44.6 °F 76% 29.40 in 12.0 mi South 18.4 mph 24.2 mph N/A   Overcast
6:00 AM 51.8 °F 44.6 °F 76% 29.43 in 12.0 mi South 18.4 mph 24.2 mph N/A   Overcast
7:00 AM 50.0 °F 44.6 °F 82% 29.46 in 15.0 mi South 11.5 mph 20.7 mph N/A   Mostly Cloudy
8:00 AM 51.8 °F 44.6 °F 76% 29.50 in 15.0 mi South 16.1 mph - N/A   Overcast
9:00 AM 51.8 °F 46.4 °F 82% 29.54 in 15.0 mi SSE 13.8 mph 20.7 mph N/A   Overcast
9:07 AM 51.8 °F 46.4 °F 82% 29.55 in 15.0 mi SSE 15.0 mph - N/A Rain Light Rain
10:00 AM 51.8 °F 48.2 °F 88% 29.57 in 15.0 mi SSE 17.3 mph - N/A Rain Light Rain
10:37 AM 53.6 °F 48.2 °F 82% 29.58 in 15.0 mi SSE 16.1 mph 21.9 mph N/A   Overcast
11:00 AM 53 °F 48 °F 77% 29.58 in 15 mi South 18.4 mph - - Rain Light Rain
11:00 AM 53.6 °F 48.2 °F 82% 29.58 in 15.0 mi SSE 18.4 mph 27.6 mph N/A   Overcast
12:00 PM 57.2 °F 50.0 °F 77% 29.61 in 15.0 mi South 20.7 mph 27.6 mph N/A   Overcast
12:30 PM 53.6 °F 48.2 °F 82% 29.62 in 15.0 mi South 20.7 mph 31.1 mph N/A Rain Light Rain
1:00 PM 55.4 °F 48.2 °F 77% 29.63 in 15.0 mi South 19.6 mph 26.5 mph N/A   Mostly Cloudy
2:00 PM 53.6 °F 48.2 °F 82% 29.65 in 15.0 mi South 23.0 mph 31.1 mph N/A   Overcast
2:30 PM 53.6 °F 48.2 °F 82% 29.67 in 15.0 mi South 19.6 mph 25.3 mph N/A Rain Light Rain
2:50 PM 55.4 °F 48.2 °F 77% 29.67 in 15.0 mi South 23.0 mph 28.8 mph N/A   Mostly Cloudy
3:00 PM 57.2 °F 48.2 °F 72% 29.67 in 15.0 mi South 17.3 mph 29.9 mph N/A   Mostly Cloudy
3:47 PM 53.6 °F 48.2 °F 82% 29.69 in 15.0 mi South 18.4 mph 28.8 mph N/A Rain Light Rain
4:00 PM 53.6 °F 48.2 °F 82% 29.70 in 15.0 mi South 21.9 mph - N/A Rain Light Rain
4:56 PM 53.6 °F 48.2 °F 82% 29.72 in 15.0 mi South 13.8 mph - N/A   Mostly Cloudy
5:00 PM 54 °F 49 °F 77% 29.72 in 15 mi South 15.0 mph - - Rain Light Rain
5:00 PM 53.6 °F 48.2 °F 82% 29.72 in 15.0 mi South 15.0 mph - N/A   Mostly Cloudy
6:00 PM 53.6 °F 46.4 °F 77% 29.74 in 15.0 mi South 16.1 mph 23.0 mph N/A   Mostly Cloudy
7:00 PM 51.8 °F 46.4 °F 82% 29.75 in 15.0 mi South 15.0 mph 20.7 mph N/A   Mostly Cloudy
7:45 PM 51.8 °F 46.4 °F 82% 29.77 in 15.0 mi South 16.1 mph 21.9 mph N/A Rain Light Rain Showers
8:00 PM 51.8 °F 46.4 °F 82% 29.77 in 15.0 mi South 16.1 mph 24.2 mph N/A Rain Light Rain Showers
8:12 PM 50.0 °F 46.4 °F 87% 29.77 in 15.0 mi South 16.1 mph - N/A   Mostly Cloudy
9:00 PM 50.0 °F 44.6 °F 82% 29.80 in 15.0 mi South 12.7 mph - N/A   Mostly Cloudy
10:00 PM 50.0 °F 46.4 °F 87% 29.82 in 15.0 mi South 15.0 mph 20.7 mph N/A   Mostly Cloudy
11:00 PM 51 °F 45 °F 72% 29.84 in 15 mi South 17.3 mph - -   Partly Cloudy
11:00 PM 51.8 °F 44.6 °F 76% 29.83 in 15.0 mi South 15.0 mph 27.6 mph N/A   Mostly Cloudy
11:10 PM 50.0 °F 44.6 °F 82% 29.84 in 15.0 mi SSW 17.3 mph - N/A Rain Light Rain Showers